Погода в Харьковском

Россия / Чеченская Республика     43°28′31″N   46°20′04″E
темп.,
°C
ветер,
м/с
пор.,
м/с
влажн.,
%
обл.,
%
осадки,
мм/ч
давл.,
гПа
погр.,
м
18 мая, вт
вт1800:00+19зюз51174100 0.0 1005287
03:00+19з81382100 0.0 1007785
06:00+18з6107830 0.0 1009771
09:00+21зсз6864100 0.1 10101128
12:00+25зсз675395 0.1 10101658
15:00+24з355497 0.1 1010972
18:00+24з245687 0.0 1010137
21:00+20зюз35640 0.0 101173
19 мая, ср
ср1900:00+17з23750 0.0 101124
03:00+16з11830 0.0 101011
06:00+18вюв11730 0.0 100966
09:00+24в34498 0.0 1007747
12:00+29всв333891 0.0 10071245
15:00+30ссз33323 0.0 10081932
18:00+22зсз7136099 0.0 1012816
21:00+17з6978100 0.4 1017653
20 мая, чт
чт2000:00+16з4782100 0.2 1017387
03:00+17з2476100 0.2 1017151
06:00+17зюз2372100 0.0 1018103
09:00+21в344435 0.0 10181093
12:00+25в56370 0.0 10161466
15:00+26в78340 0.0 10141562
18:00+21в611445 0.0 1015603
21:00+15в411610 0.0 1016213
21 мая, пт
пт2100:00+14в38620 0.0 1015150
03:00+13в34660 0.0 101458
06:00+16в38623 0.0 1014244
09:00+25вюв810452 0.0 1012773
12:00+28в1011360 0.0 1011897
15:00+27в1013381 0.0 1010729
18:00+22в815501 0.0 1010478
21:00+19в715573 0.0 1010351
22 мая, сб
сб2200:00+18в512620 0.0 1009297
03:00+15в48786 0.0 1009173
06:00+17вюв58770 0.0 1009277
09:00+25в67504 0.0 1008580
12:00+30в89412 0.0 1006697
15:00+29в811415 0.0 1005587
18:00+23в71457100 0.0 1004424
21:00+17вюв4776100 0.0 1006158